| time (UTC) | temp C | wind direction | speed KPH | gust KPH | rain 1hr cm | rain 24hr cm | rain mn cm | humidity % | barometer mb |
| 20260906114511 | 15 | 62 | 0.0 | 0.0 | 0.00 | 0.61 | 0.03 | 97 | 1015.6 |
| 20260906113015 | 15 | 62 | 0.0 | 0.0 | 0.00 | 0.61 | 0.03 | 97 | 1015.6 |
| 20260906111520 | 15 | 62 | 0.0 | 0.0 | 0.00 | 0.61 | 0.03 | 96 | 1015.4 |
| 20260906110032 | 15 | 62 | 0.0 | 0.0 | 0.00 | 0.61 | 0.03 | 96 | 1015.2 |
| 20260906104538 | 15 | 62 | 0.0 | 0.0 | 0.00 | 0.61 | 0.03 | 97 | 1015.0 |
| 20260906103013 | 15 | 62 | 0.0 | 0.0 | 0.00 | 0.61 | 0.03 | 97 | 1014.8 |
| 20260906101528 | 15 | 62 | 0.0 | 0.0 | 0.00 | 0.61 | 0.03 | 97 | 1014.7 |
| 20260906100023 | 15 | 62 | 0.0 | 0.0 | 0.03 | 0.61 | 0.03 | 97 | 1014.6 |
| 20260906094530 | 15 | 62 | 0.0 | 0.0 | 0.03 | 0.61 | 0.03 | 96 | 1014.5 |
| 20260906093032 | 15 | 62 | 0.0 | 0.0 | 0.03 | 0.61 | 0.03 | 97 | 1014.5 |
| 20260906091514 | 15 | 62 | 0.0 | 0.0 | 0.03 | 0.61 | 0.03 | 97 | 1014.6 |
| 20260906090021 | 15 | 62 | 1.6 | 3.2 | 0.00 | 0.58 | 0.00 | 96 | 1014.5 |
| 20260906084528 | 16 | 49 | 0.0 | 0.0 | 0.00 | 0.58 | 0.00 | 97 | 1014.6 |
| 20260906083030 | 15 | 144 | 0.0 | 0.0 | 0.00 | 0.58 | 0.00 | 97 | 1014.6 |
| 20260906081531 | 15 | 144 | 0.0 | 0.0 | 0.00 | 0.58 | 0.00 | 97 | 1014.4 |
| 20260906080016 | 15 | 143 | 0.0 | 0.0 | 0.00 | 0.58 | 0.00 | 97 | 1014.2 |
| 20260906074528 | 15 | 143 | 0.0 | 0.0 | 0.00 | 0.58 | 0.00 | 97 | 1014.0 |
| 20260906073032 | 15 | 147 | 0.0 | 0.0 | 0.00 | 0.58 | 0.00 | 96 | 1014.1 |
| 20260906071503 | 15 | 146 | 0.0 | 0.0 | 0.00 | 0.58 | 0.00 | 96 | 1014.0 |
| 20260906070012 | 15 | 146 | 0.0 | 0.0 | 0.00 | 0.58 | 0.00 | 96 | 1014.2 |
| 20260906064520 | 15 | 146 | 0.0 | 0.0 | 0.00 | 0.61 | 0.00 | 96 | 1014.2 |
| 20260906063023 | 16 | 146 | 0.0 | 0.0 | 0.00 | 0.61 | 0.00 | 96 | 1014.5 |
| 20260906061530 | 16 | 146 | 0.0 | 0.0 | 0.00 | 0.61 | 0.00 | 96 | 1014.7 |
| 20260906060010 | 16 | 274 | 0.0 | 0.0 | 0.00 | 0.61 | 0.00 | 96 | 1014.9 |
| 20260906054514 | 16 | 291 | 0.0 | 1.6 | 0.00 | 0.61 | 0.00 | 96 | 1014.9 |
| 20260906053023 | 16 | 293 | 0.0 | 1.6 | 0.00 | 0.61 | 0.00 | 96 | 1014.7 |
| 20260906051532 | 16 | 131 | 0.0 | 1.6 | 0.00 | 0.61 | 0.00 | 96 | 1014.7 |
| 20260906050029 | 16 | 237 | 0.0 | 1.6 | 0.00 | 0.61 | 0.00 | 96 | 1014.7 |
| 20260906044508 | 16 | 237 | 0.0 | 1.6 | 0.00 | 0.61 | 0.00 | 96 | 1014.7 |
| 20260906043016 | 16 | 134 | 0.0 | 3.2 | 0.00 | 0.61 | 0.00 | 96 | 1014.7 |
| 20260906041525 | 16 | 26 | 1.6 | 3.2 | 0.00 | 0.61 | 0.00 | 96 | 1014.9 |
| 20260906040034 | 16 | 270 | 1.6 | 3.2 | 0.00 | 0.61 | 0.00 | 96 | 1014.9 |
| 20260906034540 | 16 | 257 | 0.0 | 1.6 | 0.00 | 0.61 | 0.61 | 96 | 1015.0 |
| 20260906033010 | 16 | 136 | 0.0 | 3.2 | 0.00 | 0.61 | 0.61 | 96 | 1015.1 |
| 20260906031518 | 17 | 333 | 0.0 | 1.6 | 0.00 | 0.61 | 0.61 | 96 | 1015.4 |
| 20260906030023 | 16 | 21 | 0.0 | 1.6 | 0.00 | 0.61 | 0.61 | 95 | 1015.5 |
| 20260906024530 | 17 | 21 | 1.6 | 1.6 | 0.00 | 0.61 | 0.61 | 96 | 1015.3 |
| 20260906023032 | 17 | 18 | 1.6 | 1.6 | 0.00 | 0.61 | 0.61 | 96 | 1015.2 |
| 20260906021516 | 17 | 18 | 0.0 | 0.0 | 0.00 | 0.61 | 0.61 | 95 | 1014.8 |
| 20260906020018 | 17 | 18 | 0.0 | 0.0 | 0.00 | 0.61 | 0.61 | 95 | 1015.1 |
| 20260906014538 | 17 | 18 | 0.0 | 1.6 | 0.00 | 0.61 | 0.61 | 95 | 1015.0 |
| 20260906013034 | 17 | 13 | 0.0 | 0.0 | 0.00 | 0.61 | 0.61 | 94 | 1014.7 |
| 20260906011535 | 18 | 13 | 0.0 | 0.0 | 0.00 | 0.61 | 0.61 | 94 | 1014.5 |
| 20260906010034 | 18 | 13 | 0.0 | 0.0 | 0.00 | 0.61 | 0.61 | 94 | 1014.2 |
| 20260906004525 | 18 | 13 | 0.0 | 0.0 | 0.00 | 0.61 | 0.61 | 92 | 1014.1 |
| 20260906003027 | 19 | 13 | 0.0 | 0.0 | 0.00 | 0.61 | 0.61 | 92 | 1014.2 |
| 20260906001530 | 20 | 13 | 0.0 | 0.0 | 0.00 | 0.61 | 0.61 | 91 | 1014.1 |
| 20260906000037 | 20 | 13 | 0.0 | 0.0 | 0.00 | 0.61 | 0.61 | 88 | 1014.1 |
| 20260905234531 | 21 | 13 | 0.0 | 0.0 | 0.00 | 0.61 | 0.61 | 86 | 1014.1 |
| 20260905233038 | 22 | 13 | 0.0 | 0.0 | 0.00 | 0.61 | 0.61 | 84 | 1014.0 |
| 20260905231536 | 24 | 13 | 0.0 | 0.0 | 0.00 | 0.61 | 0.61 | 74 | 1013.9 |
| 20260905230031 | 25 | 302 | 0.0 | 3.2 | 0.00 | 0.61 | 0.61 | 75 | 1014.1 |
| 20260905224516 | 26 | 358 | 1.6 | 3.2 | 0.00 | 0.61 | 0.61 | 69 | 1014.3 |
| 20260905223025 | 27 | 318 | 0.0 | 6.4 | 0.00 | 0.61 | 0.61 | 68 | 1014.0 |
| 20260905221530 | 27 | 293 | 0.0 | 6.4 | 0.00 | 0.61 | 0.61 | 68 | 1013.7 |
| 20260905220008 | 27 | 304 | 3.2 | 8.0 | 0.00 | 0.61 | 0.61 | 65 | 1013.5 |
| 20260905214535 | 27 | 304 | 1.6 | 11.3 | 0.00 | 0.61 | 0.61 | 64 | 1013.5 |
| 20260905211529 | 27 | 3 | 3.2 | 9.7 | 0.00 | 0.64 | 0.61 | 61 | 1013.2 |
| 20260905210005 | 28 | 287 | 1.6 | 14.5 | 0.00 | 0.64 | 0.61 | 64 | 1013.2 |
| 20260905204514 | 28 | 311 | 3.2 | 8.0 | 0.00 | 0.64 | 0.61 | 64 | 1013.1 |
| 20260905203016 | 28 | 6 | 3.2 | 8.0 | 0.00 | 0.64 | 0.61 | 64 | 1013.0 |
| 20260905201516 | 27 | 316 | 3.2 | 11.3 | 0.00 | 0.64 | 0.61 | 65 | 1013.0 |
| 20260905200024 | 27 | 299 | 1.6 | 6.4 | 0.00 | 0.64 | 0.61 | 64 | 1013.2 |
| 20260905194515 | 27 | 8 | 1.6 | 17.7 | 0.00 | 0.64 | 0.61 | 66 | 1013.4 |
| 20260905193024 | 27 | 345 | 3.2 | 14.5 | 0.00 | 0.64 | 0.61 | 63 | 1013.4 |
| 20260905191518 | 27 | 26 | 3.2 | 8.0 | 0.00 | 0.64 | 0.61 | 64 | 1013.6 |
| 20260905190019 | 27 | 208 | 1.6 | 9.7 | 0.00 | 0.64 | 0.61 | 64 | 1013.9 |
| 20260905184525 | 27 | 286 | 3.2 | 14.5 | 0.00 | 0.64 | 0.61 | 65 | 1014.0 |
| 20260905183006 | 27 | 267 | 1.6 | 8.0 | 0.00 | 0.64 | 0.61 | 66 | 1014.1 |
| 20260905181516 | 26 | 239 | 3.2 | 12.9 | 0.00 | 0.64 | 0.61 | 67 | 1014.3 |
| 20260905180014 | 26 | 271 | 6.4 | 16.1 | 0.00 | 0.64 | 0.61 | 67 | 1014.7 |
| 20260905174520 | 26 | 304 | 3.2 | 6.4 | 0.00 | 0.64 | 0.61 | 72 | 1015.0 |
| 20260905173026 | 25 | 248 | 3.2 | 9.7 | 0.00 | 0.64 | 0.61 | 77 | 1015.1 |
| 20260905171509 | 25 | 238 | 3.2 | 6.4 | 0.00 | 0.64 | 0.61 | 79 | 1015.3 |
| 20260905170009 | 25 | 264 | 1.6 | 4.8 | 0.00 | 0.64 | 0.61 | 79 | 1015.2 |
| 20260905164524 | 24 | 110 | 3.2 | 8.0 | 0.00 | 0.64 | 0.61 | 80 | 1015.3 |
| 20260905163023 | 23 | 184 | 3.2 | 6.4 | 0.00 | 0.64 | 0.61 | 83 | 1015.5 |
| 20260905161528 | 22 | 151 | 1.6 | 8.0 | 0.00 | 0.64 | 0.61 | 89 | 1015.8 |
| 20260905160022 | 21 | 295 | 1.6 | 8.0 | 0.00 | 0.64 | 0.61 | 91 | 1015.7 |
| 20260905154523 | 21 | 285 | 3.2 | 8.0 | 0.00 | 0.64 | 0.61 | 91 | 1015.2 |
| 20260905153019 | 21 | 259 | 1.6 | 4.8 | 0.00 | 0.64 | 0.61 | 93 | 1015.7 |
| 20260905151535 | 20 | 224 | 1.6 | 4.8 | 0.00 | 0.64 | 0.61 | 94 | 1016.6 |
| 20260905150035 | 20 | 290 | 1.6 | 3.2 | 0.25 | 0.64 | 0.61 | 95 | 1016.8 |
| 20260905144515 | 19 | 58 | 0.0 | 1.6 | 0.41 | 0.64 | 0.61 | 96 | 1016.4 |
| 20260905143013 | 18 | 39 | 0.0 | 3.2 | 0.46 | 0.64 | 0.61 | 96 | 1016.4 |
| 20260905141524 | 18 | 44 | 1.6 | 3.2 | 0.58 | 0.64 | 0.61 | 95 | 1016.5 |
| 20260905140027 | 18 | 32 | 3.2 | 8.0 | 0.33 | 0.38 | 0.36 | 94 | 1017.1 |
| 20260905134542 | 18 | 297 | 8.0 | 19.3 | 0.18 | 0.23 | 0.20 | 97 | 1017.4 |
| 20260905133011 | 17 | 229 | 0.0 | 8.0 | 0.13 | 0.18 | 0.15 | 97 | 1017.2 |
| 20260905131518 | 17 | 257 | 1.6 | 6.4 | 0.00 | 0.05 | 0.03 | 97 | 1016.4 |
| 20260905130025 | 17 | 135 | 0.0 | 0.0 | 0.00 | 0.05 | 0.03 | 96 | 1015.6 |
| 20260905124528 | 17 | 135 | 0.0 | 0.0 | 0.00 | 0.05 | 0.03 | 96 | 1015.4 |
| 20260905123032 | 17 | 139 | 0.0 | 0.0 | 0.00 | 0.05 | 0.03 | 97 | 1015.4 |
| 20260905121527 | 17 | 44 | 0.0 | 0.0 | 0.00 | 0.05 | 0.03 | 97 | 1015.7 |
| 20260905120024 | 17 | 44 | 0.0 | 0.0 | 0.00 | 0.05 | 0.03 | 97 | 1015.6 |